Location: D�pe
(52.6057°N, 8.1808°E)
Time: 07:53:56
(UTC+00:00)

Cosmos 1455 - Pass Details

Date: 29 October 2020
Orbit: 499 x 521 km, 82.5° (Epoch: 01 December)

Event Time Altitude Azimuth Distance (km) Brightness Sun altitude
Rises 17:53:07 0° 180° (S) 2,604 5.8 -17.3°
Reaches altitude 10° 17:55:14 10° 176° (S) 1,727 4.8 -17.6°
Maximum altitude 17:58:58 60° 97° (E) 593 2.1 -18.2°
Drops below altitude 10° 18:02:46 10° 17° (NNE) 1,756 4.7 -18.7°
Sets 18:04:56 0° 14° (NNE) 2,653 5.7 -19.1°
